| time (UTC) | temp F | wind direction | speed MPH | gust MPH | rain 1hr in | rain 24hr in | rain mn in | humidity % | barometer mb |
| 20260902130054 | 75 | 0 | 0.0 | 1.0 | 0.00 | 0.00 | 0.00 | 87 | 1020.4 |
| 20260902124549 | 73 | 0 | 0.0 | 0.0 | 0.00 | 0.00 | 0.00 | 92 | 1020.4 |
| 20260902123045 | 72 | 0 | 0.0 | 0.0 | 0.00 | 0.00 | 0.00 | 93 | 1020.2 |
| 20260902121547 | 71 | 0 | 0.0 | 0.0 | 0.00 | 0.00 | 0.00 | 93 | 1020.1 |
| 20260902120051 | 71 | 0 | 0.0 | 0.0 | 0.00 | 0.00 | 0.00 | 93 | 1020.0 |
| 20260902114607 | 71 | 0 | 0.0 | 0.0 | 0.00 | 0.00 | 0.00 | 92 | 1019.9 |
| 20260902113044 | 70 | 0 | 0.0 | 0.0 | 0.00 | 0.00 | 0.00 | 92 | 1019.7 |
| 20260902111545 | 70 | 0 | 0.0 | 0.0 | 0.00 | 0.00 | 0.00 | 92 | 1019.6 |
| 20260902110053 | 71 | 0 | 0.0 | 0.0 | 0.00 | 0.00 | 0.00 | 92 | 1019.4 |
| 20260902104547 | 71 | 0 | 0.0 | 0.0 | 0.00 | 0.00 | 0.00 | 92 | 1019.2 |
| 20260902103055 | 70 | 0 | 0.0 | 0.0 | 0.00 | 0.00 | 0.00 | 92 | 1019.1 |
| 20260902101551 | 71 | 0 | 0.0 | 0.0 | 0.00 | 0.00 | 0.00 | 91 | 1018.8 |
| 20260902100050 | 71 | 0 | 0.0 | 0.0 | 0.00 | 0.00 | 0.00 | 91 | 1018.7 |
| 20260902094547 | 71 | 0 | 0.0 | 0.0 | 0.00 | 0.00 | 0.00 | 91 | 1018.7 |
| 20260902093044 | 71 | 0 | 0.0 | 1.0 | 0.00 | 0.00 | 0.00 | 91 | 1018.6 |
| 20260902091549 | 71 | 0 | 0.0 | 1.0 | 0.00 | 0.00 | 0.00 | 90 | 1018.5 |
| 20260902090055 | 71 | 0 | 0.0 | 0.0 | 0.00 | 0.00 | 0.00 | 90 | 1018.4 |
| 20260902084545 | 71 | 0 | 0.0 | 0.0 | 0.00 | 0.00 | 0.00 | 89 | 1018.3 |
| 20260902083049 | 72 | 0 | 0.0 | 0.0 | 0.00 | 0.00 | 0.00 | 89 | 1018.5 |
| 20260902081551 | 72 | 0 | 0.0 | 0.0 | 0.00 | 0.00 | 0.00 | 89 | 1018.4 |
| 20260902080051 | 72 | 0 | 0.0 | 0.0 | 0.00 | 0.00 | 0.00 | 89 | 1018.4 |
| 20260902074551 | 72 | 0 | 0.0 | 0.0 | 0.00 | 0.00 | 0.00 | 88 | 1018.4 |
| 20260902073053 | 72 | 0 | 0.0 | 0.0 | 0.00 | 0.00 | 0.00 | 87 | 1018.3 |
| 20260902071544 | 72 | 0 | 0.0 | 0.0 | 0.00 | 0.00 | 0.00 | 86 | 1018.4 |
| 20260902070046 | 73 | 0 | 0.0 | 0.0 | 0.00 | 0.00 | 0.00 | 86 | 1018.5 |
| 20260902064544 | 73 | 0 | 0.0 | 0.0 | 0.00 | 0.00 | 0.00 | 86 | 1018.5 |
| 20260902063104 | 73 | 0 | 0.0 | 0.0 | 0.00 | 0.00 | 0.00 | 86 | 1018.5 |
| 20260902061544 | 74 | 0 | 0.0 | 0.0 | 0.00 | 0.00 | 0.00 | 85 | 1018.6 |
| 20260902060047 | 74 | 0 | 0.0 | 0.0 | 0.00 | 0.00 | 0.00 | 84 | 1018.7 |
| 20260902054544 | 75 | 0 | 0.0 | 0.0 | 0.00 | 0.00 | 0.00 | 84 | 1018.7 |
| 20260902053053 | 75 | 0 | 0.0 | 0.0 | 0.00 | 0.00 | 0.00 | 83 | 1018.6 |
| 20260902051545 | 75 | 0 | 0.0 | 0.0 | 0.00 | 0.00 | 0.00 | 82 | 1018.5 |
| 20260902050047 | 76 | 0 | 0.0 | 0.0 | 0.00 | 0.00 | 0.00 | 82 | 1018.5 |
| 20260902044544 | 76 | 0 | 0.0 | 0.0 | 0.00 | 0.00 | 0.00 | 81 | 1018.4 |
| 20260902043055 | 76 | 0 | 0.0 | 0.0 | 0.00 | 0.00 | 0.00 | 81 | 1018.4 |
| 20260902041557 | 77 | 0 | 0.0 | 0.0 | 0.00 | 0.00 | 0.00 | 80 | 1018.5 |
| 20260902040046 | 77 | 0 | 0.0 | 0.0 | 0.00 | 0.00 | 0.00 | 80 | 1018.5 |
| 20260902034545 | 77 | 0 | 0.0 | 0.0 | 0.00 | 0.00 | 0.00 | 79 | 1018.5 |
| 20260902033054 | 78 | 0 | 0.0 | 0.0 | 0.00 | 0.00 | 0.00 | 78 | 1018.6 |
| 20260902031549 | 79 | 0 | 0.0 | 0.0 | 0.00 | 0.00 | 0.00 | 77 | 1018.6 |
| 20260902030047 | 79 | 0 | 0.0 | 0.0 | 0.00 | 0.00 | 0.00 | 77 | 1018.5 |
| 20260902024543 | 80 | 0 | 0.0 | 0.0 | 0.00 | 0.00 | 0.00 | 75 | 1018.4 |
| 20260902023049 | 81 | 0 | 0.0 | 0.0 | 0.00 | 0.00 | 0.00 | 75 | 1018.4 |
| 20260902021549 | 81 | 0 | 0.0 | 0.0 | 0.00 | 0.00 | 0.00 | 75 | 1018.3 |
| 20260902020045 | 81 | 0 | 0.0 | 0.0 | 0.00 | 0.00 | 0.00 | 74 | 1018.2 |
| 20260902014548 | 82 | 0 | 0.0 | 0.0 | 0.00 | 0.00 | 0.00 | 74 | 1018.1 |
| 20260902013048 | 83 | 0 | 0.0 | 0.0 | 0.00 | 0.00 | 0.00 | 73 | 1018.0 |
| 20260902011546 | 84 | 0 | 0.0 | 0.0 | 0.00 | 0.00 | 0.00 | 71 | 1017.8 |
| 20260902010044 | 85 | 0 | 0.0 | 0.0 | 0.00 | 0.00 | 0.00 | 70 | 1017.7 |
| 20260902004545 | 86 | 0 | 0.0 | 0.0 | 0.00 | 0.00 | 0.00 | 68 | 1017.6 |
| 20260902003054 | 88 | 0 | 0.0 | 1.0 | 0.00 | 0.00 | 0.00 | 66 | 1017.6 |
| 20260902001551 | 89 | 0 | 0.0 | 1.0 | 0.00 | 0.00 | 0.00 | 65 | 1017.5 |
| 20260902000113 | 92 | 0 | 0.0 | 1.0 | 0.00 | 0.00 | 0.00 | 61 | 1017.5 |
| 20260901234551 | 94 | 0 | 0.0 | 1.0 | 0.00 | 0.00 | 0.00 | 58 | 1017.5 |
| 20260901233049 | 94 | 77 | 0.0 | 3.0 | 0.00 | 0.00 | 0.00 | 53 | 1017.7 |
| 20260901231549 | 95 | 118 | 0.0 | 1.0 | 0.00 | 0.00 | 0.00 | 53 | 1017.7 |
| 20260901230110 | 95 | 72 | 0.0 | 2.0 | 0.00 | 0.00 | 0.00 | 53 | 1017.7 |
| 20260901224547 | 95 | 0 | 1.0 | 3.0 | 0.00 | 0.00 | 0.00 | 51 | 1017.7 |
| 20260901223113 | 95 | 100 | 0.0 | 3.0 | 0.00 | 0.00 | 0.00 | 52 | 1017.7 |
| 20260901221545 | 96 | 96 | 2.0 | 5.0 | 0.00 | 0.00 | 0.00 | 51 | 1017.7 |
| 20260901220117 | 97 | 111 | 1.0 | 6.0 | 0.00 | 0.00 | 0.00 | 49 | 1017.7 |
| 20260901214547 | 98 | 0 | 1.0 | 4.0 | 0.00 | 0.00 | 0.00 | 48 | 1017.7 |
| 20260901213108 | 97 | 20 | 2.0 | 6.0 | 0.00 | 0.00 | 0.00 | 49 | 1017.7 |
| 20260901211544 | 97 | 91 | 2.0 | 4.0 | 0.00 | 0.00 | 0.00 | 50 | 1018.0 |
| 20260901210053 | 95 | 147 | 0.0 | 6.0 | 0.00 | 0.00 | 0.00 | 52 | 1018.0 |
| 20260901204544 | 96 | 136 | 1.0 | 6.0 | 0.00 | 0.00 | 0.00 | 52 | 1018.1 |
| 20260901203059 | 96 | 0 | 1.0 | 2.0 | 0.00 | 0.00 | 0.00 | 49 | 1018.1 |
| 20260901201545 | 95 | 57 | 1.0 | 5.0 | 0.00 | 0.00 | 0.00 | 50 | 1018.2 |
| 20260901200045 | 96 | 25 | 2.0 | 8.0 | 0.00 | 0.00 | 0.00 | 51 | 1018.4 |
| 20260901194544 | 96 | 20 | 1.0 | 6.0 | 0.00 | 0.00 | 0.00 | 53 | 1018.5 |
| 20260901193053 | 96 | 79 | 2.0 | 6.0 | 0.00 | 0.00 | 0.00 | 52 | 1018.7 |
| 20260901191544 | 97 | 42 | 3.0 | 7.0 | 0.00 | 0.00 | 0.00 | 51 | 1018.8 |
| 20260901190056 | 97 | 234 | 0.0 | 3.0 | 0.00 | 0.00 | 0.00 | 53 | 1018.9 |
| 20260901184552 | 95 | 329 | 1.0 | 7.0 | 0.00 | 0.00 | 0.00 | 55 | 1019.2 |
| 20260901183050 | 96 | 51 | 2.0 | 6.0 | 0.00 | 0.00 | 0.00 | 53 | 1019.4 |
| 20260901181548 | 96 | 127 | 1.0 | 4.0 | 0.00 | 0.00 | 0.00 | 54 | 1019.5 |
| 20260901180045 | 95 | 51 | 2.0 | 6.0 | 0.00 | 0.00 | 0.00 | 55 | 1019.7 |
| 20260901174555 | 94 | 158 | 3.0 | 6.0 | 0.00 | 0.00 | 0.00 | 56 | 1019.8 |
| 20260901173056 | 93 | 219 | 1.0 | 2.0 | 0.00 | 0.00 | 0.00 | 57 | 1020.0 |
| 20260901171545 | 92 | 87 | 0.0 | 2.0 | 0.00 | 0.00 | 0.00 | 61 | 1020.2 |
| 20260901170104 | 93 | 67 | 1.0 | 3.0 | 0.00 | 0.00 | 0.00 | 62 | 1020.4 |
| 20260901164551 | 92 | 79 | 0.0 | 2.0 | 0.00 | 0.00 | 0.00 | 61 | 1020.6 |
| 20260901163048 | 92 | 18 | 1.0 | 3.0 | 0.00 | 0.00 | 0.00 | 61 | 1020.7 |
| 20260901161548 | 92 | 83 | 1.0 | 3.0 | 0.00 | 0.00 | 0.00 | 59 | 1020.9 |
| 20260901160056 | 92 | 82 | 1.0 | 5.0 | 0.00 | 0.00 | 0.00 | 60 | 1021.0 |
| 20260901154554 | 92 | 0 | 1.0 | 3.0 | 0.00 | 0.00 | 0.00 | 62 | 1021.1 |
| 20260901153050 | 91 | 129 | 0.0 | 6.0 | 0.00 | 0.00 | 0.00 | 63 | 1021.0 |
| 20260901151544 | 91 | 352 | 0.0 | 4.0 | 0.00 | 0.00 | 0.00 | 64 | 1020.9 |
| 20260901150044 | 90 | 112 | 0.0 | 4.0 | 0.00 | 0.00 | 0.00 | 66 | 1021.0 |
| 20260901144544 | 89 | 309 | 1.0 | 4.0 | 0.00 | 0.00 | 0.00 | 68 | 1021.0 |
| 20260901143049 | 87 | 229 | 2.0 | 5.0 | 0.00 | 0.00 | 0.00 | 69 | 1020.8 |
| 20260901141546 | 86 | 203 | 3.0 | 6.0 | 0.00 | 0.00 | 0.00 | 71 | 1020.9 |
| 20260901140053 | 84 | 205 | 2.0 | 5.0 | 0.00 | 0.00 | 0.00 | 74 | 1021.0 |
| 20260901134601 | 84 | 234 | 0.0 | 3.0 | 0.00 | 0.00 | 0.00 | 75 | 1021.0 |
| 20260901133052 | 82 | 0 | 0.0 | 1.0 | 0.00 | 0.00 | 0.00 | 79 | 1021.2 |
| 20260901131545 | 80 | 0 | 0.0 | 1.0 | 0.00 | 0.00 | 0.00 | 83 | 1021.3 |